Preview of NWS' New Version of Forecast
This preview is not operational and should not be used for support decisions.
Latest weather observations around

West Memphis, West Memphis Municipal Airport (KAWM)

Using English Units (Switch to International System of Units)
Date/ Time (CDT) Wind (mph) Vis. (mi) Weather Sky Cond. Temp (°F) Rel. Humidity Wind Chill (°F) Heat Index (°F) Pressure Precip. (in)
Air Dwpt 6 hour Altimeter (inHg) Sea level (inHg) 1 hr 3 hr 6 hr
Max Min
Jun 18 07:53 S 7 9 Clear CLR 81 73     77%   86 30.12 30.11      
Jun 18 06:53 S 6 9 Clear CLR 78 73     85%   80 30.1 30.08      
Jun 18 05:53 S 5 9 Clear CLR 76 72     88%   77 30.09 30.07      
Jun 18 04:53 S 7 10 Clear CLR 77 73     88%   79 30.07 30.05      
Jun 18 03:53 S 7 10 Clear CLR 77 73     88%   79 30.06 30.04      
Jun 18 02:53 S 3 10 Clear CLR 78 71     79%   79 30.05 30.03      
Jun 18 01:53 S 7 10 Clear CLR 80 71     74%   84 30.05 30.03      
Jun 18 00:53 SSW 7 10 Clear CLR 82 73     74%   87 30.06 30.04      
Jun 17 23:53 S 10 10 Clear CLR 83 73     72%   89 30.07 30.05      
Jun 17 22:53 S 11 10 Clear CLR 85 74     70%   92 30.07 30.05      
Jun 17 21:53 S 7 10 Clear CLR 84 74     72%   91 30.06 30.04      
Jun 17 20:53 S 5 10 Clear CLR 85 73     68%   92 30.03 30.01      
Jun 17 19:53 S 7 10 Clear CLR 89 73     59%   97 30.02 30      
Jun 17 18:53 S 9 10 Mostly Clear FEW065 92 73     54%   101 30.01 29.99      
Jun 17 17:53 SW 10 10 Mostly Clear FEW043 92 73     54%   101 30 29.98      
Jun 17 16:53 3 10 Partly Cloudy FEW046 SCT060 SCT070 93 74     54%   103 30.02 30      
Jun 17 15:53 SSW 13 10 Mostly Clear FEW045 94 74     53%   104 30.02 30      
Jun 17 14:53 S 13 10 Mostly Clear FEW041 94 75     54%   106 30.04 30.02      
Jun 17 13:53 S 9 10 Partly Cloudy FEW038 SCT060 93 74     54%   103 30.06 30.03      
Jun 17 12:53 6 10 Mostly Clear FEW034 90 74     59%   99 30.06 30.04      
Jun 17 11:53 S 8 10 Mostly Clear FEW028 91 75     60%   102 30.07 30.05      
Jun 17 10:53 Calm 10 Clear CLR 88 75     66%   98 30.07 30.06      
Jun 17 09:53 SSW 8 10 Clear CLR 86 74     67%   94 30.07 30.05      
Jun 17 08:53 SW 6 10 Clear CLR 84 74     72%   91 30.08 30.06      
Jun 17 07:53 S 8 10 Clear CLR 82 74     77%   88 30.08 30.06      
Jun 17 06:53 S 8 9 Clear CLR 78 74     87%   80 30.05 30.03      
Jun 17 05:53 S 7 9 Clear CLR 77 73     88%   79 30.04 30.02      
Jun 17 04:53 S 8 10 Clear   77 73     88%   79 30.01 29.99      
Jun 17 03:53 S 5 9 Clear CLR 77 74     90%   79 29.99 29.97      
Jun 17 02:53 SSE 3 10 Clear CLR 78 73     85%   80 29.98 29.96      
Jun 17 01:53 Calm 10 Clear CLR 79 74     85%   83 29.99 29.97      
Jun 17 00:53 S 3 10 Clear CLR 81 74     79%   86 29.99 29.98      
Jun 16 23:53 S 9 10 Clear CLR 83 74     74%   89 30.01 29.99      
Jun 16 22:53 Calm 10 Clear CLR 83 73     72%   89 29.99 29.97      
Jun 16 21:53 S 3 10 Clear CLR 83 72     70%   88 29.98 29.96      
Jun 16 20:53 S 5 10 Clear CLR 86 71     61%   92 29.96 29.94      
Jun 16 19:53 SSW 6 10 Clear CLR 88 72     59%   95 29.95 29.93      
Jun 16 18:53 SW 6 10 Clear CLR 92 72     52%   100 29.93 29.91      
Jun 16 17:53 S 7 10 Clear CLR 94 72     49%   102 29.93 29.91      
Jun 16 16:53 SSW 9 10 Clear CLR 96 69     42%   102 29.94 29.92      
Jun 16 15:53 SSW 10 10 Clear CLR 96 68     40%   101 29.94 29.92      
Jun 16 14:53 SSW 8 10 Mostly Clear FEW049 95 71     46%   103 29.95 29.93      
Jun 16 13:53 SSW 9 10 Mostly Clear FEW075 95 70     44%   102 29.96 29.94      
Jun 16 12:53 7 10 Clear CLR 95 71     46%   103 29.98 29.96      
Jun 16 11:53 5 10 Mostly Cloudy BKN043 93 74     54%   103 29.99 29.97      
Jun 16 10:53 5 10 Clear CLR 91 74     57%   101 29.99 29.98      
Jun 16 08:54 SSW 3 10 Clear   84        %     30.01 30      
Jun 15 08:53 5 10 Clear CLR 85 76     75%   94 30.01 30      
Jun 15 07:53 S 6 10 Clear CLR 83 77     82%   92 30.01 29.99      
May 15 04:53 Calm 7 Clear CLR 70 67     90%     29.91 29.9      
May 14 22:53 S 3 9 Mostly Clear FEW075 79 68     69%   80 29.91 29.9      
May 14 12:53 SW 8 10 Partly Cloudy SCT060 91 67     45%   94 29.98 29.96      
May 12 11:53 S 9 10 Clear CLR 85 63     48%   86 30.1 30.09      
May 12 10:53 SSW 9 10 Clear CLR 82 64     55%   84 30.1 30.08      
May 12 07:53 SSW 7 10 Clear CLR 75 65     71%   76 30.08 30.06      
May 11 22:53 S 16 10 Light Rain CLR 78 60     54%   78 29.96 29.95 0    
May 11 21:53 S 15 10 Light Rain CLR 79 60     52%   79 29.95 29.94 0 0  
Jun 11 15:53 SSW 15 10 Clear CLR 89 65     45%   91 30.01 30      
Jun 08 23:53 Calm 10 Clear CLR 62 59     90%     29.93 29.92      
Jun 08 22:53 Calm 10 Clear CLR 64 60     87%     29.92 29.91      
Jun 08 18:53 ENE 7 10 Clear CLR 77 51     40%   76 29.9 29.89      
Jun 08 11:53 NNE 11 10 Partly Cloudy SCT050 74 57     56%   74 30 29.99      
Jun 07 14:53 NE 15 10 Clear CLR 82 53     37%   81 29.92 29.91      
Jun 07 10:53 NE 10 10 Clear CLR 78 58     50%   78 29.96 29.94      
Jun 07 08:53 NNE 11 10 Clear CLR 72 60     66%   72 29.96 29.94      
Notice The following observation data may not be complete
Jun 06 07:01   1 Fog/Mist VV002          %              
Jun 06 05:53 NE 5 0.25 Fog VV002 71 71     100%   73 29.79 29.78      
Jun 06 05:30 NE 3 0.75 Fog/Mist VV002 71 71     100%   73 29.79        
Jun 05 13:53 S 7 10 Cloudy BKN023 BKN031 OVC060 79 71     77%   82 29.76 29.75